Flag for U.S.A. Weather past 2 weeks in Oakland, California, U.S.A.

Now
63 °F

Low clouds.


Feels Like: 63 °F
Forecast: 60 / 73 °F
Wind: No wind

Location: Metro Oakland International Airport

Current Time: Aug 22, 2014 at 3:26:45 AM

Latest Report: Aug 22, 2014 at 2:53 AM


Visibility: 10 mi

Pressure: 29.93 "Hg

Humidity: 81%

Dew point: 57 °F

Location of OaklandLocation

Historic Weather in Oakland — Graph

°F

Oakland temperature yesterday

Maximum temperature yesterday: 74 °F (at 1:53 PM)
Minimum temperature yesterday: 62 °F (at 10:53 PM)
Average temperature yesterday: 67 °F

Past Weeks' High & Low Weather Summary

 TemperatureHumidityPressure
High74 °F (Aug 13, 2:53 PM)87% (Aug 15, 12:53 AM)30.06 "Hg (Aug 15, 12:53 AM)
Low59 °F (Aug 9, 5:53 AM)52% (Aug 13, 2:53 PM)29.81 "Hg (Aug 19, 6:53 PM)
Average65 °F73%29.94 "Hg
* Reported Aug 7 1:53 AM — Aug 22 1:53 AM, Oakland, Weather by CustomWeather, © 2014

Note: Actual official high and low records may vary slightly from our data, if they occured in-between our weather recording intervals... More about our weather records

Advertising

Oakland weather history for previous 24 hours

 ConditionsComfort  
Time TempWeatherWind HumidityBarometerVisibility
1:53 AM
Aug 22
63 °FLow clouds.No wind87%29.93 "Hg10 mi
12:53 AM62 °FPassing clouds.7 mph83%29.94 "Hg10 mi
11:53 PM
Aug 21
62 °FPassing clouds.5 mph83%29.93 "Hg10 mi
10:53 PM62 °FPassing clouds.3 mph83%29.93 "Hg10 mi
9:53 PM63 °FPassing clouds.10 mph81%29.93 "Hg10 mi
8:53 PM64 °FPassing clouds.8 mph78%29.92 "Hg10 mi
7:53 PM65 °FPassing clouds.15 mph76%29.92 "Hg10 mi
6:53 PM68 °FPassing clouds.13 mph68%29.90 "Hg10 mi
5:53 PM69 °FPassing clouds.15 mph66%29.91 "Hg10 mi
4:53 PM72 °FPassing clouds.14 mph64%29.91 "Hg10 mi
3:53 PM73 °FPassing clouds.15 mph59%29.93 "Hg10 mi
2:53 PM74 °FPassing clouds.15 mph57%29.94 "Hg10 mi
1:53 PM74 °FPassing clouds.12 mph57%29.95 "Hg10 mi
12:53 PM72 °FPassing clouds.15 mph61%29.96 "Hg10 mi
11:53 AM72 °FPassing clouds.8 mph59%29.96 "Hg10 mi
10:53 AM70 °FPassing clouds.9 mph64%29.97 "Hg10 mi
9:53 AM67 °FPassing clouds.7 mph71%29.96 "Hg10 mi
8:53 AM65 °FPartly sunny.3 mph78%29.95 "Hg10 mi
7:53 AM65 °FPartly sunny.5 mph76%29.94 "Hg10 mi
6:53 AM64 °FOvercast.No wind78%29.93 "Hg10 mi
5:53 AM63 °FOvercast.5 mph78%29.91 "Hg10 mi
4:53 AM63 °FOvercast.No wind81%29.90 "Hg10 mi
3:53 AM64 °FOvercast.No wind75%29.91 "Hg10 mi
Weather by CustomWeather, © 2014

See weather overviewHow to use our weather pages